Regional Weather Roundup
Issued by NWS

Home | Current Version | Previous Version | Text Only | Print | Product List | Glossary Off
Versions: 1 2 3 4 5 6 7 8 9 10 11 12 13 14 15 16 17 18 19 20 21 22 23 24 25 26 27 28 29 30 31 32 33 34 35 36 37 38 39 40 41 42 43 44 45 46 47 48 49 50

000
ASUS43 KIND 221100
RWRIN

WEATHER ROUNDUP FOR INDIANA
NATIONAL WEATHER SERVICE INDIANAPOLIS IN
700 AM EDT SAT JUL 22 2017

NOTE: "FAIR" INDICATES FEW OR NO CLOUDS BELOW 12,000 FEET WITH NO
SIGNIFICANT WEATHER AND/OR OBSTRUCTIONS TO VISIBILITY.

* - STATION DOES NOT REPORT WEATHER SUCH AS PRECIPITATION OR FOG.

+ - STATION NOT QUALITY CONTROLLED BY THE NATIONAL WEATHER SERVICE.
    USE DATA WITH CAUTION...ESPECIALLY DEWPOINT AND RELATIVE
    HUMIDITY OBSERVATIONS.

INZ001>003-010>013-019-020-221200-
NORTHWEST INDIANA

CITY           SKY/WX    TMP DP  RH WIND       PRES   REMARKS
GARY /AIRPORT/ LGT RAIN  73  72  94 SW12      29.83F
MICHIGAN CITY+ LGT RAIN  70  70 100 SW17G23   29.79F
MONTICELLO +   CLOUDY    72  70  95 SW7       29.82S
RENSSELAER +   CLOUDY    72  68  88 CALM      29.87R

$$

LMZ046-743>745-221200-
SOUTHERN LAKE MICHIGAN

STATION/POSITION TIME  TEMP    WIND        PRES    WAVE
                       AIR SEA DIR/SP/G            HT
                 (UTC) (F)     (DEG/KT/KT) (MB)    (FT)
BURNS HARBOR     1040   72     200/ 20/ 23 1009.1F
MICHIGAN CITY    1030   71     180/ 22/ 25   N/A
5NW MICH CITY    1050   73 74  210/ 21/ 27   N/A     4

$$

INZ004-005-014>016-021>024-221200-
NORTH CENTRAL INDIANA

CITY           SKY/WX    TMP DP  RH WIND       PRES   REMARKS
GOSHEN         LGT RAIN  72  68  87 SE8       29.80F
SOUTH BEND     CLOUDY    71  70  96 S15       29.76F

$$

INZ006>009-017-018-025>027-221200-
NORTHEAST INDIANA

CITY           SKY/WX    TMP DP  RH WIND       PRES   REMARKS
FORT WAYNE     CLOUDY    71  68  90 S6        29.86S
KENDALLVILLE + LGT RAIN  69  69 100 SE5       29.85S

$$

INZ028-029-035-036-043>045-051>053-221200-
WEST CENTRAL INDIANA

CITY           SKY/WX    TMP DP  RH WIND       PRES   REMARKS
LAFAYETTE      MOCLDY    72  72 100 SW5       29.83F
TERRE HAUTE    CLOUDY    78  75  90 E3        29.87S

$$

INZ030>032-037>040-046>048-054>057-064-065-221200-
CENTRAL INDIANA

CITY           SKY/WX    TMP DP  RH WIND       PRES   REMARKS
COLUMBUS       CLOUDY    75  72  88 NE6       29.92
INDIANAPOLIS   CLOUDY    74  70  87 SE9       29.88F
-EAGLE CREEK   LGT RAIN  74  69  85 SE5       29.88F
KOKOMO +       CLOUDY    72  70  93 SE8       29.84F
MT COMFORT *+  CLOUDY    72  70  94 SE3       29.90F
SHELBYVILLE    CLOUDY    74  69  85 SE7       29.90F

$$

INZ033-034-041-042-049-050-058-059-221200-
EAST CENTRAL INDIANA

CITY           SKY/WX    TMP DP  RH WIND       PRES   REMARKS
MUNCIE         TSTM      75  68  78 SW8       29.86F
RICHMOND +     LGT RAIN  70  68  94 SW3       29.93F

$$

INZ060-061-067>069-081>083-085>088-221200-
SOUTHWEST INDIANA

CITY           SKY/WX    TMP DP  RH WIND       PRES   REMARKS
EVANSVILLE     CLEAR     78  74  87 SW8       29.90S FOG
HUNTINGBURG *+ CLEAR     78  75  90 S7        29.91S

$$

INZ062-063-066-070>080-084-089>092-221200-
SOUTH CENTRAL AND SOUTHEAST INDIANA

CITY           SKY/WX    TMP DP  RH WIND       PRES   REMARKS
BLOOMINGTON    CLOUDY    79  73  82 SW7       29.90S
MADISON *+     CLOUDY    77  73  88 SW3       29.93S
SEYMOUR +      CLOUDY    79  75  89 S5        29.90R

$$




USA.gov is the U.S. government's official web portal to all federal, state and local government web resources and services.